Time,TemperatureF,DewpointF,PressureIn,WindDirection,WindDirectionDegrees,WindSpeedMPH,WindSpeedGustMPH,Humidity,HourlyPrecipIn,Conditions,Clouds,dailyrainin,SoftwareType,DateUTC
2013-06-16 00:04:00,59.7,50.7,29.84,West,263,0.0,3.0,72,0.00,,,0.00,Wunderground v.1.15,2013-06-16 07:04:00,
2013-06-16 00:10:00,59.5,50.8,29.84,WSW,257,0.0,0.0,73,0.00,,,0.00,Wunderground v.1.15,2013-06-16 07:10:00,
2013-06-16 00:16:00,59.4,50.7,29.85,WSW,257,0.0,4.0,73,0.00,,,0.00,Wunderground v.1.15,2013-06-16 07:16:00,
2013-06-16 00:21:00,59.3,50.6,29.84,West,264,0.0,0.0,73,0.00,,,0.00,Wunderground v.1.15,2013-06-16 07:21:00,
2013-06-16 00:27:00,59.3,51.0,29.85,West,265,0.0,0.0,74,0.00,,,0.00,Wunderground v.1.15,2013-06-16 07:27:00,
2013-06-16 00:32:00,59.1,50.8,29.84,West,265,0.0,0.0,74,0.00,,,0.00,Wunderground v.1.15,2013-06-16 07:32:00,
2013-06-16 00:38:00,59.0,50.7,29.84,WNW,286,0.0,0.0,74,0.00,,,0.00,Wunderground v.1.15,2013-06-16 07:38:00,
2013-06-16 00:44:00,59.0,50.7,29.84,WNW,287,0.0,0.0,74,0.00,,,0.00,Wunderground v.1.15,2013-06-16 07:44:00,
2013-06-16 00:50:00,58.9,51.0,29.84,WNW,287,0.0,0.0,75,0.00,,,0.00,Wunderground v.1.15,2013-06-16 07:50:00,
2013-06-16 00:56:00,58.6,50.7,29.84,WNW,286,0.0,0.0,75,0.00,,,0.00,Wunderground v.1.15,2013-06-16 07:56:00,
2013-06-16 01:02:00,58.4,50.9,29.84,WNW,287,0.0,0.0,76,0.00,,,0.00,Wunderground v.1.15,2013-06-16 08:02:00,
2013-06-16 01:08:00,58.3,50.8,29.84,WNW,287,0.0,0.0,76,0.00,,,0.00,Wunderground v.1.15,2013-06-16 08:08:00,
2013-06-16 01:14:00,57.9,50.7,29.84,WNW,287,0.0,0.0,77,0.00,,,0.00,Wunderground v.1.15,2013-06-16 08:14:00,
2013-06-16 01:20:00,57.4,50.6,29.84,WNW,287,0.0,0.0,78,0.00,,,0.00,Wunderground v.1.15,2013-06-16 08:20:00,
2013-06-16 01:26:00,56.9,50.1,29.84,WNW,287,0.0,0.0,78,0.00,,,0.00,Wunderground v.1.15,2013-06-16 08:26:00,
2013-06-16 01:32:00,56.4,50.0,29.84,WNW,287,0.0,0.0,79,0.00,,,0.00,Wunderground v.1.15,2013-06-16 08:32:00,
2013-06-16 01:38:00,55.9,49.8,29.84,WNW,287,0.0,0.0,80,0.00,,,0.00,Wunderground v.1.15,2013-06-16 08:38:00,
2013-06-16 01:44:00,55.5,49.8,29.84,WNW,287,0.0,0.0,81,0.00,,,0.00,Wunderground v.1.15,2013-06-16 08:44:00,
2013-06-16 01:50:00,55.3,49.9,29.84,WNW,287,0.0,0.0,82,0.00,,,0.00,Wunderground v.1.15,2013-06-16 08:50:00,
2013-06-16 01:55:00,55.0,49.6,29.84,WNW,287,0.0,0.0,82,0.00,,,0.00,Wunderground v.1.15,2013-06-16 08:55:00,
2013-06-16 02:00:00,54.8,49.4,29.84,WNW,287,0.0,0.0,82,0.00,,,0.00,Wunderground v.1.15,2013-06-16 09:00:00,
2013-06-16 02:05:00,54.5,49.1,29.84,WNW,287,0.0,0.0,82,0.00,,,0.00,Wunderground v.1.15,2013-06-16 09:05:00,
2013-06-16 02:10:00,54.4,49.3,29.84,WNW,287,0.0,0.0,83,0.00,,,0.00,Wunderground v.1.15,2013-06-16 09:10:00,
2013-06-16 02:15:00,54.3,49.2,29.84,WNW,287,0.0,0.0,83,0.00,,,0.00,Wunderground v.1.15,2013-06-16 09:15:00,
2013-06-16 02:20:00,54.3,49.6,29.84,WNW,287,0.0,0.0,84,0.00,,,0.00,Wunderground v.1.15,2013-06-16 09:20:00,
2013-06-16 02:25:00,54.3,49.6,29.84,WNW,287,0.0,0.0,84,0.00,,,0.00,Wunderground v.1.15,2013-06-16 09:25:00,
2013-06-16 02:30:00,54.4,49.7,29.84,WNW,287,0.0,0.0,84,0.00,,,0.00,Wunderground v.1.15,2013-06-16 09:30:00,
2013-06-16 02:35:00,54.3,49.6,29.84,WNW,287,0.0,0.0,84,0.00,,,0.00,Wunderground v.1.15,2013-06-16 09:35:00,
2013-06-16 02:40:00,54.2,49.5,29.84,WNW,286,0.0,0.0,84,0.00,,,0.00,Wunderground v.1.15,2013-06-16 09:40:00,
2013-06-16 02:45:00,54.2,49.8,29.84,WNW,286,0.0,0.0,85,0.00,,,0.00,Wunderground v.1.15,2013-06-16 09:45:00,
2013-06-16 02:50:00,54.3,49.9,29.84,WNW,286,0.0,0.0,85,0.00,,,0.00,Wunderground v.1.15,2013-06-16 09:50:00,
2013-06-16 02:55:00,54.2,49.8,29.84,WNW,287,0.0,1.0,85,0.00,,,0.00,Wunderground v.1.15,2013-06-16 09:55:00,
2013-06-16 03:00:00,54.1,49.7,29.84,WNW,288,0.0,0.0,85,0.00,,,0.00,Wunderground v.1.15,2013-06-16 10:00:00,
2013-06-16 03:06:00,54.0,49.3,29.84,WNW,287,0.0,0.0,84,0.00,,,0.00,Wunderground v.1.15,2013-06-16 10:06:00,
2013-06-16 03:11:00,53.8,49.1,29.83,WNW,303,0.0,1.0,84,0.00,,,0.00,Wunderground v.1.15,2013-06-16 10:11:00,
2013-06-16 03:16:00,53.7,49.0,29.84,WNW,303,0.0,1.0,84,0.00,,,0.00,Wunderground v.1.15,2013-06-16 10:16:00,
2013-06-16 03:21:00,53.8,49.1,29.84,WNW,292,0.0,0.0,84,0.00,,,0.00,Wunderground v.1.15,2013-06-16 10:21:00,
2013-06-16 03:26:00,53.6,48.2,29.84,WNW,284,0.0,0.0,82,0.00,,,0.00,Wunderground v.1.15,2013-06-16 10:26:00,
2013-06-16 03:31:00,53.7,48.7,29.84,WNW,284,0.0,0.0,83,0.00,,,0.00,Wunderground v.1.15,2013-06-16 10:31:00,
2013-06-16 03:36:00,53.9,48.9,29.84,WNW,285,0.0,0.0,83,0.00,,,0.00,Wunderground v.1.15,2013-06-16 10:36:00,
2013-06-16 03:41:00,54.1,48.7,29.84,WNW,285,0.0,0.0,82,0.00,,,0.00,Wunderground v.1.15,2013-06-16 10:41:00,
2013-06-16 03:46:00,54.1,48.7,29.84,WNW,285,0.0,0.0,82,0.00,,,0.00,Wunderground v.1.15,2013-06-16 10:46:00,
2013-06-16 03:51:00,54.1,48.7,29.84,WNW,286,0.0,0.0,82,0.00,,,0.00,Wunderground v.1.15,2013-06-16 10:51:00,
2013-06-16 03:56:00,54.1,48.4,29.84,WNW,286,0.0,0.0,81,0.00,,,0.00,Wunderground v.1.15,2013-06-16 10:56:00,
2013-06-16 04:01:00,54.0,48.3,29.84,WNW,284,0.0,0.0,81,0.00,,,0.00,Wunderground v.1.15,2013-06-16 11:01:00,
2013-06-16 04:06:00,53.9,47.9,29.84,WNW,289,1.0,3.0,80,0.00,,,0.00,Wunderground v.1.15,2013-06-16 11:06:00,
2013-06-16 04:11:00,53.8,47.4,29.84,WNW,289,0.0,0.0,79,0.00,,,0.00,Wunderground v.1.15,2013-06-16 11:11:00,
2013-06-16 04:16:00,53.7,47.3,29.84,WNW,288,0.0,0.0,79,0.00,,,0.00,Wunderground v.1.15,2013-06-16 11:16:00,
2013-06-16 04:21:00,53.6,46.9,29.84,WNW,288,0.0,0.0,78,0.00,,,0.00,Wunderground v.1.15,2013-06-16 11:21:00,
2013-06-16 04:26:00,53.5,46.8,29.84,WNW,287,0.0,0.0,78,0.00,,,0.00,Wunderground v.1.15,2013-06-16 11:26:00,
2013-06-16 04:31:00,53.5,46.8,29.84,WNW,286,0.0,0.0,78,0.00,,,0.00,Wunderground v.1.15,2013-06-16 11:31:00,
2013-06-16 04:36:00,53.7,47.0,29.85,WNW,286,0.0,0.0,78,0.00,,,0.00,Wunderground v.1.15,2013-06-16 11:36:00,
2013-06-16 04:41:00,53.7,47.3,29.85,WNW,286,0.0,0.0,79,0.00,,,0.00,Wunderground v.1.15,2013-06-16 11:41:00,
2013-06-16 04:46:00,53.7,47.0,29.85,WNW,284,0.0,0.0,78,0.00,,,0.00,Wunderground v.1.15,2013-06-16 11:46:00,
2013-06-16 04:51:00,53.6,46.6,29.85,WNW,286,0.0,0.0,77,0.00,,,0.00,Wunderground v.1.15,2013-06-16 11:51:00,
2013-06-16 04:56:00,53.5,46.1,29.85,WNW,286,0.0,0.0,76,0.00,,,0.00,Wunderground v.1.15,2013-06-16 11:56:00,
2013-06-16 05:01:00,53.3,45.2,29.85,WNW,286,0.0,0.0,74,0.00,,,0.00,Wunderground v.1.15,2013-06-16 12:01:00,
2013-06-16 05:06:00,53.2,44.8,29.85,WNW,286,0.0,0.0,73,0.00,,,0.00,Wunderground v.1.15,2013-06-16 12:06:00,
2013-06-16 05:11:00,53.1,43.9,29.85,WNW,286,0.0,0.0,71,0.00,,,0.00,Wunderground v.1.15,2013-06-16 12:11:00,
2013-06-16 05:16:00,52.9,43.4,29.86,WNW,284,0.0,0.0,70,0.00,,,0.00,Wunderground v.1.15,2013-06-16 12:16:00,
2013-06-16 05:21:00,52.6,42.7,29.86,WNW,285,0.0,0.0,69,0.00,,,0.00,Wunderground v.1.15,2013-06-16 12:21:00,
2013-06-16 05:26:00,52.4,42.1,29.86,WNW,286,0.0,1.0,68,0.00,,,0.00,Wunderground v.1.15,2013-06-16 12:26:00,
2013-06-16 05:31:00,52.3,42.0,29.86,WNW,286,0.0,0.0,68,0.00,,,0.00,Wunderground v.1.15,2013-06-16 12:31:00,
2013-06-16 05:36:00,52.4,42.5,29.87,WNW,286,0.0,0.0,69,0.00,,,0.00,Wunderground v.1.15,2013-06-16 12:36:00,
2013-06-16 05:41:00,52.4,42.5,29.88,WNW,286,0.0,0.0,69,0.00,,,0.00,Wunderground v.1.15,2013-06-16 12:41:00,
2013-06-16 05:46:00,52.5,43.0,29.87,WNW,286,0.0,0.0,70,0.00,,,0.00,Wunderground v.1.15,2013-06-16 12:46:00,
2013-06-16 05:51:00,52.6,43.5,29.87,WNW,286,0.0,0.0,71,0.00,,,0.00,Wunderground v.1.15,2013-06-16 12:51:00,
2013-06-16 05:56:00,52.7,43.6,29.87,WNW,286,0.0,0.0,71,0.00,,,0.00,Wunderground v.1.15,2013-06-16 12:56:00,
2013-06-16 06:01:00,52.8,44.0,29.87,WNW,286,0.0,0.0,72,0.00,,,0.00,Wunderground v.1.15,2013-06-16 13:01:00,
2013-06-16 06:06:00,52.9,44.1,29.87,WNW,286,0.0,0.0,72,0.00,,,0.00,Wunderground v.1.15,2013-06-16 13:06:00,
2013-06-16 06:11:00,53.1,43.6,29.88,WNW,286,0.0,0.0,70,0.00,,,0.00,Wunderground v.1.15,2013-06-16 13:11:00,
2013-06-16 06:16:00,53.3,43.4,29.88,WNW,286,0.0,0.0,69,0.00,,,0.00,Wunderground v.1.15,2013-06-16 13:16:00,
2013-06-16 06:21:00,53.4,43.1,29.88,WNW,286,0.0,0.0,68,0.00,,,0.00,Wunderground v.1.15,2013-06-16 13:21:00,
2013-06-16 06:26:00,53.5,43.2,29.88,WNW,286,0.0,0.0,68,0.00,,,0.00,Wunderground v.1.15,2013-06-16 13:26:00,
2013-06-16 06:31:00,53.6,42.9,29.88,WNW,286,0.0,0.0,67,0.00,,,0.00,Wunderground v.1.15,2013-06-16 13:31:00,
2013-06-16 06:36:00,53.9,43.6,29.90,WNW,286,0.0,0.0,68,0.00,,,0.00,Wunderground v.1.15,2013-06-16 13:36:00,
2013-06-16 06:41:00,54.4,45.2,29.89,WNW,286,0.0,0.0,71,0.00,,,0.00,Wunderground v.1.15,2013-06-16 13:41:00,
2013-06-16 06:47:00,55.1,46.6,29.89,WNW,286,0.0,0.0,73,0.00,,,0.00,Wunderground v.1.15,2013-06-16 13:47:00,
2013-06-16 06:52:00,55.7,47.5,29.89,WNW,286,0.0,0.0,74,0.00,,,0.00,Wunderground v.1.15,2013-06-16 13:52:00,
2013-06-16 06:57:00,56.4,48.6,29.89,WNW,286,0.0,0.0,75,0.00,,,0.00,Wunderground v.1.15,2013-06-16 13:57:00,
2013-06-16 07:02:00,57.2,49.7,29.89,WNW,286,0.0,0.0,76,0.00,,,0.00,Wunderground v.1.15,2013-06-16 14:02:00,
2013-06-16 07:07:00,58.2,51.0,29.89,West,281,0.0,0.0,77,0.00,,,0.00,Wunderground v.1.15,2013-06-16 14:07:00,
2013-06-16 07:12:00,59.0,51.4,29.89,West,280,0.0,4.0,76,0.00,,,0.00,Wunderground v.1.15,2013-06-16 14:12:00,
2013-06-16 07:17:00,59.8,51.9,29.89,WNW,286,0.0,4.0,75,0.00,,,0.00,Wunderground v.1.15,2013-06-16 14:17:00,
2013-06-16 07:22:00,60.5,51.8,29.89,WNW,285,0.0,4.0,73,0.00,,,0.00,Wunderground v.1.15,2013-06-16 14:22:00,
2013-06-16 07:27:00,61.3,51.8,29.89,West,263,0.0,4.0,71,0.00,,,0.00,Wunderground v.1.15,2013-06-16 14:27:00,
2013-06-16 07:32:00,62.1,51.8,29.89,West,281,0.0,4.0,69,0.00,,,0.00,Wunderground v.1.15,2013-06-16 14:32:00,
2013-06-16 07:37:00,62.7,52.0,29.90,WNW,299,0.0,4.0,68,0.00,,,0.00,Wunderground v.1.15,2013-06-16 14:37:00,
2013-06-16 07:42:00,63.2,52.1,29.90,NW,315,0.0,0.0,67,0.00,,,0.00,Wunderground v.1.15,2013-06-16 14:42:00,
2013-06-16 07:47:00,63.7,52.1,29.90,West,273,0.0,4.0,66,0.00,,,0.00,Wunderground v.1.15,2013-06-16 14:47:00,
2013-06-16 07:52:00,64.2,52.2,29.90,WNW,284,0.0,2.0,65,0.00,,,0.00,Wunderground v.1.15,2013-06-16 14:52:00,
2013-06-16 07:57:00,64.7,52.7,29.90,West,274,6.0,6.0,65,0.00,,,0.00,Wunderground v.1.15,2013-06-16 14:57:00,
2013-06-16 08:02:00,65.0,52.1,29.90,West,267,0.0,2.0,63,0.00,,,0.00,Wunderground v.1.15,2013-06-16 15:02:00,
2013-06-16 08:07:00,65.4,52.5,29.90,WNW,285,1.0,5.0,63,0.00,,,0.00,Wunderground v.1.15,2013-06-16 15:07:00,
2013-06-16 08:12:00,65.8,52.0,29.89,WSW,252,2.0,5.0,61,0.00,,,0.00,Wunderground v.1.15,2013-06-16 15:12:00,
2013-06-16 08:17:00,66.3,52.4,29.89,West,260,0.0,6.0,61,0.00,,,0.00,Wunderground v.1.15,2013-06-16 15:17:00,
2013-06-16 08:22:00,66.7,51.9,29.90,West,281,0.0,6.0,59,0.00,,,0.00,Wunderground v.1.15,2013-06-16 15:22:00,
2013-06-16 08:27:00,67.0,52.2,29.90,West,281,1.0,6.0,59,0.00,,,0.00,Wunderground v.1.15,2013-06-16 15:27:00,
2013-06-16 08:32:00,67.5,51.7,29.90,WSW,242,0.0,6.0,57,0.00,,,0.00,Wunderground v.1.15,2013-06-16 15:32:00,
2013-06-16 08:37:00,67.8,51.0,29.90,West,277,0.0,8.0,55,0.00,,,0.00,Wunderground v.1.15,2013-06-16 15:37:00,
2013-06-16 08:42:00,68.2,51.9,29.90,WNW,295,0.0,4.0,56,0.00,,,0.00,Wunderground v.1.15,2013-06-16 15:42:00,
2013-06-16 08:48:00,68.4,51.6,29.90,NW,305,1.0,9.0,55,0.00,,,0.00,Wunderground v.1.15,2013-06-16 15:48:00,
2013-06-16 08:53:00,69.1,52.2,29.90,West,279,0.0,3.0,55,0.00,,,0.00,Wunderground v.1.15,2013-06-16 15:53:00,
2013-06-16 08:58:00,70.0,51.6,29.90,WNW,299,3.0,5.0,52,0.00,,,0.00,Wunderground v.1.15,2013-06-16 15:58:00,
2013-06-16 09:03:00,70.5,52.0,29.90,West,279,2.0,5.0,52,0.00,,,0.00,Wunderground v.1.15,2013-06-16 16:03:00,
2013-06-16 09:08:00,70.7,51.7,29.90,WSW,257,4.0,9.0,51,0.00,,,0.00,Wunderground v.1.15,2013-06-16 16:08:00,
2013-06-16 09:13:00,70.8,52.3,29.90,WSW,257,0.0,8.0,52,0.00,,,0.00,Wunderground v.1.15,2013-06-16 16:13:00,
2013-06-16 09:18:00,71.0,53.0,29.90,WNW,288,0.0,8.0,53,0.00,,,0.00,Wunderground v.1.15,2013-06-16 16:18:00,
2013-06-16 09:23:00,71.2,53.7,29.90,West,259,2.0,11.0,54,0.00,,,0.00,Wunderground v.1.15,2013-06-16 16:23:00,
2013-06-16 09:28:00,71.3,52.8,29.89,West,271,6.0,11.0,52,0.00,,,0.00,Wunderground v.1.15,2013-06-16 16:28:00,
2013-06-16 09:33:00,71.7,52.6,29.90,WNW,290,4.0,10.0,51,0.00,,,0.00,Wunderground v.1.15,2013-06-16 16:33:00,
2013-06-16 09:38:00,72.2,52.5,29.90,West,279,0.0,10.0,50,0.00,,,0.00,Wunderground v.1.15,2013-06-16 16:38:00,
2013-06-16 09:43:00,72.4,51.0,29.91,West,265,2.0,7.0,47,0.00,,,0.00,Wunderground v.1.15,2013-06-16 16:43:00,
2013-06-16 09:48:00,72.6,51.8,29.90,West,272,1.0,7.0,48,0.00,,,0.00,Wunderground v.1.15,2013-06-16 16:48:00,
2013-06-16 09:53:00,73.1,51.7,29.91,West,273,0.0,7.0,47,0.00,,,0.00,Wunderground v.1.15,2013-06-16 16:53:00,
2013-06-16 09:58:00,73.3,51.3,29.91,WSW,252,1.0,7.0,46,0.00,,,0.00,Wunderground v.1.15,2013-06-16 16:58:00,
2013-06-16 10:03:00,73.5,51.4,29.90,WNW,295,0.0,4.0,46,0.00,,,0.00,Wunderground v.1.15,2013-06-16 17:03:00,
2013-06-16 10:08:00,74.2,52.1,29.90,West,279,0.0,4.0,46,0.00,,,0.00,Wunderground v.1.15,2013-06-16 17:08:00,
2013-06-16 10:13:00,74.6,51.2,29.90,WSW,251,1.0,6.0,44,0.00,,,0.00,Wunderground v.1.15,2013-06-16 17:13:00,
2013-06-16 10:18:00,74.9,49.6,29.90,West,279,0.0,9.0,41,0.00,,,0.00,Wunderground v.1.15,2013-06-16 17:18:00,
2013-06-16 10:23:00,75.6,50.2,29.89,West,268,0.0,10.0,41,0.00,,,0.00,Wunderground v.1.15,2013-06-16 17:23:00,
2013-06-16 10:28:00,75.8,48.4,29.89,West,265,1.0,10.0,38,0.00,,,0.00,Wunderground v.1.15,2013-06-16 17:28:00,
2013-06-16 10:33:00,76.1,49.3,29.90,West,264,0.0,11.0,39,0.00,,,0.00,Wunderground v.1.15,2013-06-16 17:33:00,
2013-06-16 10:38:00,76.2,47.3,29.90,SW,220,0.0,11.0,36,0.00,,,0.00,Wunderground v.1.15,2013-06-16 17:38:00,
2013-06-16 10:43:00,76.4,48.2,29.90,NW,312,0.0,6.0,37,0.00,,,0.00,Wunderground v.1.15,2013-06-16 17:43:00,
2013-06-16 10:48:00,76.8,47.1,29.89,West,270,0.0,8.0,35,0.00,,,0.00,Wunderground v.1.15,2013-06-16 17:48:00,
2013-06-16 10:53:00,77.3,45.1,29.89,West,267,2.0,10.0,32,0.00,,,0.00,Wunderground v.1.15,2013-06-16 17:53:00,
2013-06-16 10:58:00,77.5,47.7,29.89,West,280,0.0,10.0,35,0.00,,,0.00,Wunderground v.1.15,2013-06-16 17:58:00,
2013-06-16 11:03:00,77.8,45.6,29.89,WNW,284,0.0,8.0,32,0.00,,,0.00,Wunderground v.1.15,2013-06-16 18:03:00,
2013-06-16 11:08:00,78.2,45.1,29.89,WSW,245,0.0,8.0,31,0.00,,,0.00,Wunderground v.1.15,2013-06-16 18:08:00,
2013-06-16 11:13:00,78.6,45.4,29.89,WSW,258,0.0,9.0,31,0.00,,,0.00,Wunderground v.1.15,2013-06-16 18:13:00,
2013-06-16 11:18:00,78.7,46.4,29.89,West,267,2.0,9.0,32,0.00,,,0.00,Wunderground v.1.15,2013-06-16 18:18:00,
2013-06-16 11:23:00,78.7,47.2,29.89,West,261,1.0,10.0,33,0.00,,,0.00,Wunderground v.1.15,2013-06-16 18:23:00,
2013-06-16 11:28:00,78.9,47.3,29.89,WSW,242,0.0,10.0,33,0.00,,,0.00,Wunderground v.1.15,2013-06-16 18:28:00,
2013-06-16 11:33:00,79.0,48.2,29.89,WNW,298,4.0,6.0,34,0.00,,,0.00,Wunderground v.1.15,2013-06-16 18:33:00,
2013-06-16 11:38:00,79.2,46.8,29.89,WSW,238,3.0,10.0,32,0.00,,,0.00,Wunderground v.1.15,2013-06-16 18:38:00,
2013-06-16 11:43:00,79.3,45.2,29.89,NW,304,2.0,11.0,30,0.00,,,0.00,Wunderground v.1.15,2013-06-16 18:43:00,
2013-06-16 11:49:00,79.4,47.0,29.89,WSW,257,0.0,11.0,32,0.00,,,0.00,Wunderground v.1.15,2013-06-16 18:49:00,
2013-06-16 11:54:00,79.8,45.6,29.89,WSW,248,5.0,6.0,30,0.00,,,0.00,Wunderground v.1.15,2013-06-16 18:54:00,
2013-06-16 11:59:00,80.5,47.9,29.89,West,266,7.0,7.0,32,0.00,,,0.00,Wunderground v.1.15,2013-06-16 18:59:00,
2013-06-16 12:04:00,80.9,47.4,29.89,WSW,257,12.0,12.0,31,0.00,,,0.00,Wunderground v.1.15,2013-06-16 19:04:00,
2013-06-16 12:09:00,80.9,48.3,29.88,NW,313,0.0,14.0,32,0.00,,,0.00,Wunderground v.1.15,2013-06-16 19:09:00,
2013-06-16 12:14:00,81.4,47.9,29.88,West,279,1.0,6.0,31,0.00,,,0.00,Wunderground v.1.15,2013-06-16 19:14:00,
2013-06-16 12:19:00,81.8,48.2,29.88,SW,218,3.0,10.0,31,0.00,,,0.00,Wunderground v.1.15,2013-06-16 19:19:00,
2013-06-16 12:24:00,81.8,49.1,29.88,NW,310,3.0,9.0,32,0.00,,,0.00,Wunderground v.1.15,2013-06-16 19:24:00,
2013-06-16 12:29:00,82.3,49.5,29.88,West,278,0.0,9.0,32,0.00,,,0.00,Wunderground v.1.15,2013-06-16 19:29:00,
2013-06-16 12:34:00,82.5,47.0,29.88,WSW,254,5.0,7.0,29,0.00,,,0.00,Wunderground v.1.15,2013-06-16 19:34:00,
2013-06-16 12:39:00,82.0,45.7,29.88,SW,221,0.0,9.0,28,0.00,,,0.00,Wunderground v.1.15,2013-06-16 19:39:00,
2013-06-16 12:44:00,82.3,48.6,29.88,WSW,239,1.0,13.0,31,0.00,,,0.00,Wunderground v.1.15,2013-06-16 19:44:00,
2013-06-16 12:50:00,82.5,47.9,29.88,WSW,239,3.0,3.0,30,0.00,,,0.00,Wunderground v.1.15,2013-06-16 19:50:00,
2013-06-16 12:55:00,82.9,49.2,29.87,West,271,1.0,9.0,31,0.00,,,0.00,Wunderground v.1.15,2013-06-16 19:55:00,
2013-06-16 13:00:00,83.6,49.8,29.87,West,261,0.0,2.0,31,0.00,,,0.00,Wunderground v.1.15,2013-06-16 20:00:00,
2013-06-16 13:05:00,83.7,48.1,29.87,SW,232,0.0,14.0,29,0.00,,,0.00,Wunderground v.1.15,2013-06-16 20:05:00,
2013-06-16 13:10:00,83.8,48.1,29.87,WNW,295,4.0,8.0,29,0.00,,,0.00,Wunderground v.1.15,2013-06-16 20:10:00,
2013-06-16 13:15:00,84.2,48.5,29.87,WNW,298,4.0,12.0,29,0.00,,,0.00,Wunderground v.1.15,2013-06-16 20:15:00,
2013-06-16 13:20:00,84.6,49.7,29.87,West,281,3.0,3.0,30,0.00,,,0.00,Wunderground v.1.15,2013-06-16 20:20:00,
2013-06-16 13:25:00,84.5,48.8,29.86,West,269,4.0,11.0,29,0.00,,,0.00,Wunderground v.1.15,2013-06-16 20:25:00,
2013-06-16 13:30:00,84.9,50.0,29.86,West,273,2.0,2.0,30,0.00,,,0.00,Wunderground v.1.15,2013-06-16 20:30:00,
2013-06-16 13:35:00,85.3,49.4,29.87,West,281,0.0,10.0,29,0.00,,,0.00,Wunderground v.1.15,2013-06-16 20:35:00,
2013-06-16 13:40:00,84.9,48.2,29.86,SW,220,2.0,2.0,28,0.00,,,0.00,Wunderground v.1.15,2013-06-16 20:40:00,
2013-06-16 13:45:00,84.8,48.1,29.86,West,259,0.0,7.0,28,0.00,,,0.00,Wunderground v.1.15,2013-06-16 20:45:00,
2013-06-16 13:50:00,85.0,47.3,29.86,West,281,5.0,10.0,27,0.00,,,0.00,Wunderground v.1.15,2013-06-16 20:50:00,
2013-06-16 13:55:00,85.2,49.4,29.86,WNW,292,0.0,10.0,29,0.00,,,0.00,Wunderground v.1.15,2013-06-16 20:55:00,
2013-06-16 14:00:00,85.5,47.7,29.85,NW,309,1.0,3.0,27,0.00,,,0.00,Wunderground v.1.15,2013-06-16 21:00:00,
2013-06-16 14:05:00,86.0,50.0,29.85,WNW,287,5.0,10.0,29,0.00,,,0.00,Wunderground v.1.15,2013-06-16 21:05:00,
2013-06-16 14:10:00,86.8,48.8,29.85,West,280,1.0,9.0,27,0.00,,,0.00,Wunderground v.1.15,2013-06-16 21:10:00,
2013-06-16 14:15:00,86.3,48.4,29.85,WNW,299,3.0,11.0,27,0.00,,,0.00,Wunderground v.1.15,2013-06-16 21:15:00,
2013-06-16 14:20:00,86.0,48.1,29.85,WSW,250,5.0,5.0,27,0.00,,,0.00,Wunderground v.1.15,2013-06-16 21:20:00,
2013-06-16 14:25:00,85.6,47.8,29.85,WSW,253,3.0,9.0,27,0.00,,,0.00,Wunderground v.1.15,2013-06-16 21:25:00,
2013-06-16 14:30:00,86.2,48.3,29.85,WNW,288,3.0,4.0,27,0.00,,,0.00,Wunderground v.1.15,2013-06-16 21:30:00,
2013-06-16 14:35:00,86.8,46.8,29.85,West,265,0.0,8.0,25,0.00,,,0.00,Wunderground v.1.15,2013-06-16 21:35:00,
2013-06-16 14:40:00,86.9,48.9,29.85,West,263,3.0,6.0,27,0.00,,,0.00,Wunderground v.1.15,2013-06-16 21:40:00,
2013-06-16 14:45:00,86.9,47.9,29.85,West,265,0.0,12.0,26,0.00,,,0.00,Wunderground v.1.15,2013-06-16 21:45:00,
2013-06-16 14:50:00,87.0,48.0,29.85,WSW,257,8.0,9.0,26,0.00,,,0.00,Wunderground v.1.15,2013-06-16 21:50:00,
2013-06-16 14:55:00,87.0,48.0,29.84,WSW,249,3.0,10.0,26,0.00,,,0.00,Wunderground v.1.15,2013-06-16 21:55:00,
2013-06-16 15:00:00,86.8,46.8,29.84,West,269,2.0,6.0,25,0.00,,,0.00,Wunderground v.1.15,2013-06-16 22:00:00,
2013-06-16 15:05:00,86.9,45.8,29.84,SW,219,0.0,11.0,24,0.00,,,0.00,Wunderground v.1.15,2013-06-16 22:05:00,
2013-06-16 15:11:00,86.8,46.8,29.85,WNW,302,6.0,11.0,25,0.00,,,0.00,Wunderground v.1.15,2013-06-16 22:11:00,
2013-06-16 15:16:00,86.6,48.6,29.84,WNW,285,0.0,11.0,27,0.00,,,0.00,Wunderground v.1.15,2013-06-16 22:16:00,
2013-06-16 15:21:00,86.7,46.7,29.84,West,260,7.0,11.0,25,0.00,,,0.00,Wunderground v.1.15,2013-06-16 22:21:00,
2013-06-16 15:26:00,86.5,47.5,29.84,West,263,2.0,13.0,26,0.00,,,0.00,Wunderground v.1.15,2013-06-16 22:26:00,
2013-06-16 15:31:00,86.9,48.9,29.84,WNW,284,6.0,6.0,27,0.00,,,0.00,Wunderground v.1.15,2013-06-16 22:31:00,
2013-06-16 15:36:00,87.1,48.1,29.84,WSW,254,3.0,8.0,26,0.00,,,0.00,Wunderground v.1.15,2013-06-16 22:36:00,
2013-06-16 15:41:00,87.1,48.1,29.84,WNW,300,0.0,9.0,26,0.00,,,0.00,Wunderground v.1.15,2013-06-16 22:41:00,
2013-06-16 15:46:00,87.1,48.1,29.84,West,281,0.0,11.0,26,0.00,,,0.00,Wunderground v.1.15,2013-06-16 22:46:00,
2013-06-16 15:51:00,87.1,50.0,29.84,WNW,292,0.0,6.0,28,0.00,,,0.00,Wunderground v.1.15,2013-06-16 22:51:00,
2013-06-16 15:56:00,86.6,49.6,29.84,WNW,302,2.0,10.0,28,0.00,,,0.00,Wunderground v.1.15,2013-06-16 22:56:00,
2013-06-16 16:01:00,86.7,49.7,29.84,SW,225,1.0,6.0,28,0.00,,,0.00,Wunderground v.1.15,2013-06-16 23:01:00,
2013-06-16 16:06:00,86.8,49.8,29.84,NW,307,0.0,10.0,28,0.00,,,0.00,Wunderground v.1.15,2013-06-16 23:06:00,
2013-06-16 16:11:00,87.4,51.2,29.84,NNW,331,0.0,4.0,29,0.00,,,0.00,Wunderground v.1.15,2013-06-16 23:11:00,
2013-06-16 16:16:00,87.8,51.6,29.83,West,273,0.0,10.0,29,0.00,,,0.00,Wunderground v.1.15,2013-06-16 23:16:00,
2013-06-16 16:21:00,87.7,51.5,29.83,WNW,296,2.0,5.0,29,0.00,,,0.00,Wunderground v.1.15,2013-06-16 23:21:00,
2013-06-16 16:26:00,87.9,52.6,29.83,West,273,4.0,10.0,30,0.00,,,0.00,Wunderground v.1.15,2013-06-16 23:26:00,
2013-06-16 16:31:00,88.3,51.1,29.83,WNW,285,1.0,6.0,28,0.00,,,0.00,Wunderground v.1.15,2013-06-16 23:31:00,
2013-06-16 16:36:00,88.0,50.8,29.84,WNW,299,1.0,9.0,28,0.00,,,0.00,Wunderground v.1.15,2013-06-16 23:36:00,
2013-06-16 16:41:00,87.7,50.6,29.84,West,273,5.0,5.0,28,0.00,,,0.00,Wunderground v.1.15,2013-06-16 23:41:00,
2013-06-16 16:46:00,87.7,51.5,29.83,WNW,285,0.0,7.0,29,0.00,,,0.00,Wunderground v.1.15,2013-06-16 23:46:00,
2013-06-16 16:51:00,87.5,51.3,29.83,NW,309,2.0,10.0,29,0.00,,,0.00,Wunderground v.1.15,2013-06-16 23:51:00,
2013-06-16 16:56:00,87.3,51.2,29.84,WNW,300,3.0,13.0,29,0.00,,,0.00,Wunderground v.1.15,2013-06-16 23:56:00,
2013-06-16 17:01:00,87.1,51.0,29.84,WNW,294,3.0,10.0,29,0.00,,,0.00,Wunderground v.1.15,2013-06-17 00:01:00,
2013-06-16 17:06:00,87.1,51.0,29.83,WNW,287,1.0,10.0,29,0.00,,,0.00,Wunderground v.1.15,2013-06-17 00:06:00,
2013-06-16 17:11:00,87.1,51.0,29.83,WNW,286,0.0,5.0,29,0.00,,,0.00,Wunderground v.1.15,2013-06-17 00:11:00,
2013-06-16 17:16:00,87.1,50.0,29.83,WNW,292,2.0,9.0,28,0.00,,,0.00,Wunderground v.1.15,2013-06-17 00:16:00,
2013-06-16 17:21:00,86.9,50.8,29.83,NNW,346,2.0,7.0,29,0.00,,,0.00,Wunderground v.1.15,2013-06-17 00:21:00,
2013-06-16 17:26:00,86.9,50.8,29.83,West,272,10.0,10.0,29,0.00,,,0.00,Wunderground v.1.15,2013-06-17 00:26:00,
2013-06-16 17:32:00,86.6,50.6,29.83,WNW,294,0.0,2.0,29,0.00,,,0.00,Wunderground v.1.15,2013-06-17 00:32:00,
2013-06-16 17:37:00,86.5,50.5,29.83,West,277,1.0,6.0,29,0.00,,,0.00,Wunderground v.1.15,2013-06-17 00:37:00,
2013-06-16 17:42:00,86.3,51.2,29.83,WNW,296,1.0,5.0,30,0.00,,,0.00,Wunderground v.1.15,2013-06-17 00:42:00,
2013-06-16 17:47:00,86.0,51.8,29.83,West,279,1.0,7.0,31,0.00,,,0.00,Wunderground v.1.15,2013-06-17 00:47:00,
2013-06-16 17:52:00,85.7,50.7,29.83,West,267,0.0,12.0,30,0.00,,,0.00,Wunderground v.1.15,2013-06-17 00:52:00,
2013-06-16 17:57:00,85.3,52.1,29.83,WNW,288,0.0,12.0,32,0.00,,,0.00,Wunderground v.1.15,2013-06-17 00:57:00,
2013-06-16 18:02:00,85.1,51.1,29.83,West,276,2.0,7.0,31,0.00,,,0.00,Wunderground v.1.15,2013-06-17 01:02:00,
2013-06-16 18:07:00,84.7,51.6,29.83,WNW,287,0.0,9.0,32,0.00,,,0.00,Wunderground v.1.15,2013-06-17 01:07:00,
2013-06-16 18:12:00,84.2,51.1,29.83,West,265,1.0,9.0,32,0.00,,,0.00,Wunderground v.1.15,2013-06-17 01:12:00,
2013-06-16 18:17:00,83.9,51.7,29.83,WNW,288,2.0,9.0,33,0.00,,,0.00,Wunderground v.1.15,2013-06-17 01:17:00,
2013-06-16 18:22:00,83.7,51.5,29.83,WNW,296,2.0,8.0,33,0.00,,,0.00,Wunderground v.1.15,2013-06-17 01:22:00,
2013-06-16 18:27:00,83.5,51.4,29.83,NW,315,0.0,8.0,33,0.00,,,0.00,Wunderground v.1.15,2013-06-17 01:27:00,
2013-06-16 18:32:00,83.5,52.2,29.83,West,259,2.0,5.0,34,0.00,,,0.00,Wunderground v.1.15,2013-06-17 01:32:00,
2013-06-16 18:37:00,83.2,51.9,29.82,WNW,286,0.0,10.0,34,0.00,,,0.00,Wunderground v.1.15,2013-06-17 01:37:00,
2013-06-16 18:42:00,82.7,52.3,29.82,West,275,1.0,11.0,35,0.00,,,0.00,Wunderground v.1.15,2013-06-17 01:42:00,
2013-06-16 18:47:00,82.4,52.8,29.82,WNW,289,1.0,11.0,36,0.00,,,0.00,Wunderground v.1.15,2013-06-17 01:47:00,
2013-06-16 18:52:00,82.0,52.4,29.82,WNW,287,0.0,5.0,36,0.00,,,0.00,Wunderground v.1.15,2013-06-17 01:52:00,
2013-06-16 18:57:00,81.6,52.8,29.82,NW,325,4.0,6.0,37,0.00,,,0.00,Wunderground v.1.15,2013-06-17 01:57:00,
2013-06-16 19:02:00,81.3,52.5,29.83,NW,312,5.0,11.0,37,0.00,,,0.00,Wunderground v.1.15,2013-06-17 02:02:00,
2013-06-16 19:07:00,80.9,52.9,29.83,WNW,302,0.0,11.0,38,0.00,,,0.00,Wunderground v.1.15,2013-06-17 02:07:00,
2013-06-16 19:12:00,80.3,53.1,29.83,West,269,0.0,5.0,39,0.00,,,0.00,Wunderground v.1.15,2013-06-17 02:12:00,
2013-06-16 19:17:00,79.8,53.3,29.83,WNW,286,0.0,7.0,40,0.00,,,0.00,Wunderground v.1.15,2013-06-17 02:17:00,
2013-06-16 19:22:00,79.2,52.8,29.84,West,281,1.0,2.0,40,0.00,,,0.00,Wunderground v.1.15,2013-06-17 02:22:00,
2013-06-16 19:27:00,78.7,53.0,29.84,West,280,0.0,6.0,41,0.00,,,0.00,Wunderground v.1.15,2013-06-17 02:27:00,
2013-06-16 19:32:00,78.2,53.9,29.83,NW,308,2.0,7.0,43,0.00,,,0.00,Wunderground v.1.15,2013-06-17 02:32:00,
2013-06-16 19:37:00,77.5,53.9,29.83,WNW,298,0.0,7.0,44,0.00,,,0.00,Wunderground v.1.15,2013-06-17 02:37:00,
2013-06-16 19:42:00,77.0,53.4,29.84,WSW,248,0.0,2.0,44,0.00,,,0.00,Wunderground v.1.15,2013-06-17 02:42:00,
2013-06-16 19:47:00,76.4,53.5,29.84,WNW,288,1.0,9.0,45,0.00,,,0.00,Wunderground v.1.15,2013-06-17 02:47:00,
2013-06-16 19:52:00,75.7,53.4,29.84,WNW,291,1.0,1.0,46,0.00,,,0.00,Wunderground v.1.15,2013-06-17 02:52:00,
2013-06-16 19:57:00,75.1,53.5,29.84,WNW,284,2.0,6.0,47,0.00,,,0.00,Wunderground v.1.15,2013-06-17 02:57:00,
2013-06-16 20:02:00,74.6,53.6,29.85,WNW,294,1.0,5.0,48,0.00,,,0.00,Wunderground v.1.15,2013-06-17 03:02:00,
2013-06-16 20:07:00,74.2,53.8,29.85,WNW,291,0.0,5.0,49,0.00,,,0.00,Wunderground v.1.15,2013-06-17 03:07:00,
2013-06-16 20:12:00,73.8,53.4,29.84,WNW,288,0.0,5.0,49,0.00,,,0.00,Wunderground v.1.15,2013-06-17 03:12:00,
2013-06-16 20:17:00,73.5,53.7,29.84,WNW,293,0.0,5.0,50,0.00,,,0.00,Wunderground v.1.15,2013-06-17 03:17:00,
2013-06-16 20:23:00,73.1,53.9,29.85,West,261,0.0,5.0,51,0.00,,,0.00,Wunderground v.1.15,2013-06-17 03:23:00,
2013-06-16 20:28:00,72.8,53.6,29.85,West,271,0.0,5.0,51,0.00,,,0.00,Wunderground v.1.15,2013-06-17 03:28:00,
2013-06-16 20:33:00,72.6,54.0,29.84,West,261,0.0,2.0,52,0.00,,,0.00,Wunderground v.1.15,2013-06-17 03:33:00,
2013-06-16 20:38:00,72.3,54.2,29.84,WNW,292,10.0,10.0,53,0.00,,,0.00,Wunderground v.1.15,2013-06-17 03:38:00,
2013-06-16 20:43:00,72.0,53.9,29.84,WNW,298,0.0,2.0,53,0.00,,,0.00,Wunderground v.1.15,2013-06-17 03:43:00,
2013-06-16 20:48:00,71.7,54.2,29.84,West,280,1.0,4.0,54,0.00,,,0.00,Wunderground v.1.15,2013-06-17 03:48:00,
2013-06-16 20:53:00,71.4,53.9,29.84,NNW,333,0.0,4.0,54,0.00,,,0.00,Wunderground v.1.15,2013-06-17 03:53:00,
2013-06-16 20:58:00,71.2,54.2,29.85,West,261,0.0,4.0,55,0.00,,,0.00,Wunderground v.1.15,2013-06-17 03:58:00,
2013-06-16 21:01:00,71.1,54.6,29.85,West,279,0.0,2.0,56,0.00,,,0.00,Wunderground v.1.15,2013-06-17 04:01:00,
2013-06-16 21:02:00,71.1,54.6,29.85,WNW,294,1.0,3.0,56,0.00,,,0.00,Wunderground v.1.15,2013-06-17 04:02:00,
2013-06-16 21:07:00,70.7,54.7,29.85,West,268,0.0,5.0,57,0.00,,,0.00,Wunderground v.1.15,2013-06-17 04:07:00,
2013-06-16 21:12:00,70.5,54.5,29.85,WSW,246,0.0,0.0,57,0.00,,,0.00,Wunderground v.1.15,2013-06-17 04:12:00,
2013-06-16 21:18:00,70.3,54.8,29.85,West,263,0.0,5.0,58,0.00,,,0.00,Wunderground v.1.15,2013-06-17 04:18:00,
2013-06-16 21:23:00,70.0,55.0,29.85,WSW,257,0.0,1.0,59,0.00,,,0.00,Wunderground v.1.15,2013-06-17 04:23:00,
2013-06-16 21:28:00,69.7,55.2,29.85,WSW,246,0.0,1.0,60,0.00,,,0.00,Wunderground v.1.15,2013-06-17 04:28:00,
2013-06-16 21:33:00,69.4,55.4,29.85,WSW,250,0.0,0.0,61,0.00,,,0.00,Wunderground v.1.15,2013-06-17 04:33:00,
2013-06-16 21:38:00,69.2,55.2,29.85,West,261,0.0,4.0,61,0.00,,,0.00,Wunderground v.1.15,2013-06-17 04:38:00,
2013-06-16 21:43:00,68.9,54.9,29.85,WNW,288,0.0,6.0,61,0.00,,,0.00,Wunderground v.1.15,2013-06-17 04:43:00,
2013-06-16 21:48:00,68.7,55.2,29.85,West,261,0.0,6.0,62,0.00,,,0.00,Wunderground v.1.15,2013-06-17 04:48:00,
2013-06-16 21:53:00,68.4,55.3,29.85,WSW,257,0.0,3.0,63,0.00,,,0.00,Wunderground v.1.15,2013-06-17 04:53:00,
2013-06-16 21:58:00,68.2,55.1,29.85,West,263,1.0,6.0,63,0.00,,,0.00,Wunderground v.1.15,2013-06-17 04:58:00,
2013-06-16 22:03:00,68.0,55.4,29.85,West,266,0.0,2.0,64,0.00,,,0.00,Wunderground v.1.15,2013-06-17 05:03:00,
2013-06-16 22:08:00,67.8,55.2,29.85,West,277,0.0,2.0,64,0.00,,,0.00,Wunderground v.1.15,2013-06-17 05:08:00,
2013-06-16 22:13:00,67.6,55.0,29.85,WSW,252,0.0,1.0,64,0.00,,,0.00,Wunderground v.1.15,2013-06-17 05:13:00,
2013-06-16 22:18:00,67.5,55.3,29.85,WSW,246,0.0,1.0,65,0.00,,,0.00,Wunderground v.1.15,2013-06-17 05:18:00,
2013-06-16 22:24:00,67.3,54.7,29.86,WSW,250,0.0,1.0,64,0.00,,,0.00,Wunderground v.1.15,2013-06-17 05:24:00,
2013-06-16 22:29:00,67.0,54.4,29.85,WSW,248,0.0,1.0,64,0.00,,,0.00,Wunderground v.1.15,2013-06-17 05:29:00,
2013-06-16 22:34:00,66.8,54.7,29.85,WSW,249,0.0,0.0,65,0.00,,,0.00,Wunderground v.1.15,2013-06-17 05:34:00,
2013-06-16 22:39:00,66.5,54.8,29.84,WSW,252,0.0,0.0,66,0.00,,,0.00,Wunderground v.1.15,2013-06-17 05:39:00,
2013-06-16 22:44:00,66.2,54.5,29.85,WSW,250,0.0,0.0,66,0.00,,,0.00,Wunderground v.1.15,2013-06-17 05:44:00,
2013-06-16 22:49:00,66.0,54.7,29.85,WSW,247,0.0,1.0,67,0.00,,,0.00,Wunderground v.1.15,2013-06-17 05:49:00,
2013-06-16 22:54:00,65.8,54.5,29.85,WSW,247,0.0,0.0,67,0.00,,,0.00,Wunderground v.1.15,2013-06-17 05:54:00,
2013-06-16 22:59:00,65.6,54.3,29.85,WSW,247,0.0,0.0,67,0.00,,,0.00,Wunderground v.1.15,2013-06-17 05:59:00,
2013-06-16 23:04:00,65.4,54.6,29.85,WSW,254,0.0,0.0,68,0.00,,,0.00,Wunderground v.1.15,2013-06-17 06:04:00,
2013-06-16 23:09:00,65.3,54.5,29.85,WSW,254,0.0,3.0,68,0.00,,,0.00,Wunderground v.1.15,2013-06-17 06:09:00,
2013-06-16 23:14:00,65.2,54.4,29.85,WSW,245,0.0,7.0,68,0.00,,,0.00,Wunderground v.1.15,2013-06-17 06:14:00,
2013-06-16 23:19:00,65.2,54.8,29.85,West,263,0.0,7.0,69,0.00,,,0.00,Wunderground v.1.15,2013-06-17 06:19:00,
2013-06-16 23:24:00,65.1,54.7,29.85,West,261,0.0,0.0,69,0.00,,,0.00,Wunderground v.1.15,2013-06-17 06:24:00,
2013-06-16 23:29:00,65.1,54.7,29.85,West,259,0.0,0.0,69,0.00,,,0.00,Wunderground v.1.15,2013-06-17 06:29:00,
2013-06-16 23:34:00,64.9,54.5,29.84,West,259,0.0,0.0,69,0.00,,,0.00,Wunderground v.1.15,2013-06-17 06:34:00,
2013-06-16 23:39:00,64.7,54.3,29.84,West,259,0.0,0.0,69,0.00,,,0.00,Wunderground v.1.15,2013-06-17 06:39:00,
2013-06-16 23:44:00,64.4,54.0,29.84,West,259,0.0,0.0,69,0.00,,,0.00,Wunderground v.1.15,2013-06-17 06:44:00,
2013-06-16 23:49:00,63.9,53.5,29.84,West,259,0.0,0.0,69,0.00,,,0.00,Wunderground v.1.15,2013-06-17 06:49:00,
2013-06-16 23:54:00,63.4,53.4,29.84,West,259,0.0,0.0,70,0.00,,,0.00,Wunderground v.1.15,2013-06-17 06:54:00,
2013-06-16 23:59:00,63.0,53.4,29.84,West,259,0.0,0.0,71,0.00,,,0.00,Wunderground v.1.15,2013-06-17 06:59:00,